When you browse on this site, cookies collect data to enhance your experience and personalize the content and advertising you see.
Visit our Privacy Policy to learn more. By continuing to use the site, you agree to this use of cookies and data.
EN

Hourly Weather Obera

Today, 6 August, Thursday

Time Temperature Precipitation Wind Pressure Humidity
00:00 +15°C° 0 mm 1 mps 734 mmHg 74%
01:00 +15°C° 0 mm 1 mps 734 mmHg 77%
02:00 +15°C° 0 mm 1 mps 734 mmHg 79%
03:00 +14°C° 0 mm 1 mps 734 mmHg 80%
04:00 +14°C° 0 mm 1 mps 734 mmHg 81%
05:00 +14°C° 0 mm 1 mps 734 mmHg 83%
06:00 +15°C° 0 mm 1 mps 735 mmHg 77%
07:00 +18°C° 0 mm 1 mps 736 mmHg 72%
08:00 +19°C° 0 mm 1 mps 736 mmHg 67%
09:00 +21°C° 0 mm 2 mps 737 mmHg 58%
10:00 +24°C° 0 mm 2 mps 737 mmHg 48%
11:00 +27°C° 0 mm 2 mps 737 mmHg 39%
12:00 +28°C° 0 mm 2 mps 737 mmHg 38%
13:00 +28°C° 0 mm 2 mps 736 mmHg 36%
14:00 +29°C° 0 mm 2 mps 736 mmHg 35%
15:00 +27°C° 0 mm 1 mps 735 mmHg 43%
16:00 +24°C° 0 mm 1 mps 735 mmHg 52%
17:00 +20°C° 0 mm 0 mps 735 mmHg 60%
18:00 +19°C° 0 mm 0 mps 735 mmHg 64%
19:00 +20°C° 0 mm 1 mps 735 mmHg 68%
20:00 +18°C° 0 mm 1 mps 735 mmHg 73%
21:00 +18°C° 0 mm 1 mps 735 mmHg 73%
22:00 +16°C° 0 mm 1 mps 735 mmHg 74%
23:00 +16°C° 0 mm 1 mps 735 mmHg 75%

Tomorrow, 7 August, Friday

Time Temperature Precipitation Wind Pressure Humidity
00:00 +16°C° 0 mm 1 mps 735 mmHg 73%
01:00 +15°C° 0 mm 1 mps 735 mmHg 72%
02:00 +15°C° 0 mm 1 mps 734 mmHg 70%
03:00 +15°C° 0 mm 1 mps 734 mmHg 72%
04:00 +14°C° 0 mm 1 mps 734 mmHg 74%
05:00 +14°C° 0 mm 1 mps 734 mmHg 76%
06:00 +15°C° 0 mm 1 mps 735 mmHg 72%
07:00 +18°C° 0 mm 1 mps 735 mmHg 68%
08:00 +19°C° 0 mm 1 mps 735 mmHg 64%
09:00 +22°C° 0 mm 1 mps 735 mmHg 55%
10:00 +25°C° 0 mm 2 mps 735 mmHg 46%
11:00 +27°C° 0 mm 2 mps 735 mmHg 37%
12:00 +28°C° 0 mm 2 mps 735 mmHg 36%
13:00 +28°C° 0 mm 2 mps 735 mmHg 34%
14:00 +29°C° 0 mm 1 mps 734 mmHg 33%
15:00 +27°C° 0 mm 1 mps 734 mmHg 42%
16:00 +24°C° 0 mm 1 mps 734 mmHg 51%
17:00 +20°C° 0 mm 0 mps 734 mmHg 61%
18:00 +19°C° 0 mm 0 mps 734 mmHg 66%
19:00 +17°C° 0 mm 0 mps 734 mmHg 71%
20:00 +18°C° 0 mm 1 mps 734 mmHg 76%
21:00 +18°C° 0 mm 1 mps 734 mmHg 77%
22:00 +16°C° 0 mm 1 mps 734 mmHg 79%
23:00 +16°C° 0 mm 1 mps 734 mmHg 80%

Day after tomorrow, 8 August, Saturday

Time Temperature Precipitation Wind Pressure Humidity
00:00 +16°C° 0 mm 1 mps 734 mmHg 78%
01:00 +16°C° 0 mm 1 mps 734 mmHg 76%
02:00 +15°C° 0 mm 1 mps 734 mmHg 75%
03:00 +15°C° 0 mm 1 mps 734 mmHg 75%
04:00 +15°C° 0 mm 1 mps 734 mmHg 75%
05:00 +15°C° 0 mm 1 mps 734 mmHg 76%
06:00 +16°C° 0 mm 1 mps 734 mmHg 72%
07:00 +18°C° 0 mm 1 mps 735 mmHg 68%
08:00 +18°C° 0 mm 0 mps 735 mmHg 64%
09:00 +22°C° 0 mm 1 mps 735 mmHg 55%
10:00 +25°C° 0 mm 1 mps 735 mmHg 47%
11:00 +27°C° 0 mm 1 mps 736 mmHg 39%
12:00 +28°C° 0 mm 1 mps 735 mmHg 37%
13:00 +29°C° 0 mm 1 mps 735 mmHg 35%
14:00 +29°C° 0 mm 1 mps 734 mmHg 32%
15:00 +27°C° 0 mm 1 mps 734 mmHg 43%
16:00 +25°C° 0 mm 1 mps 733 mmHg 54%
17:00 +23°C° 0 mm 1 mps 733 mmHg 65%
18:00 +21°C° 0 mm 1 mps 733 mmHg 72%
19:00 +20°C° 0 mm 1 mps 733 mmHg 78%
20:00 +19°C° 0 mm 1 mps 733 mmHg 85%
21:00 +19°C° 0 mm 1 mps 733 mmHg 85%
22:00 +18°C° 0 mm 1 mps 733 mmHg 85%
23:00 +18°C° 0 mm 1 mps 733 mmHg 84%

9 August, Sunday

Time Temperature Precipitation Wind Pressure Humidity
00:00 +16°C° 0 mm 1 mps 733 mmHg 84%
01:00 +16°C° 0 mm 1 mps 733 mmHg 84%
02:00 +15°C° 0 mm 1 mps 733 mmHg 83%
03:00 +15°C° 0 mm 1 mps 732 mmHg 82%
04:00 +15°C° 0 mm 1 mps 732 mmHg 81%
05:00 +15°C° 0 mm 1 mps 732 mmHg 79%
06:00 +16°C° 0 mm 1 mps 732 mmHg 73%
07:00 +19°C° 0 mm 1 mps 733 mmHg 67%
08:00 +20°C° 0 mm 1 mps 733 mmHg 61%
09:00 +23°C° 0 mm 1 mps 733 mmHg 52%
10:00 +26°C° 0 mm 2 mps 733 mmHg 44%
11:00 +28°C° 0 mm 2 mps 733 mmHg 35%
12:00 +29°C° 0 mm 2 mps 732 mmHg 34%
13:00 +29°C° 0 mm 2 mps 731 mmHg 33%
14:00 +30°C° 0 mm 2 mps 730 mmHg 32%
15:00 +28°C° 0 mm 2 mps 730 mmHg 39%
16:00 +26°C° 0 mm 1 mps 730 mmHg 46%
17:00 +24°C° 0 mm 1 mps 729 mmHg 54%
18:00 +22°C° 0 mm 1 mps 729 mmHg 56%
19:00 +21°C° 0 mm 1 mps 729 mmHg 58%
20:00 +20°C° 0 mm 1 mps 729 mmHg 60%
21:00 +19°C° 0 mm 1 mps 729 mmHg 60%
22:00 +19°C° 0 mm 1 mps 729 mmHg 60%
23:00 +19°C° 0 mm 1 mps 728 mmHg 60%

10 August, Monday

Time Temperature Precipitation Wind Pressure Humidity
00:00 +19°C° 0 mm 1 mps 728 mmHg 61%
01:00 +18°C° 0 mm 2 mps 728 mmHg 62%
02:00 +18°C° 0 mm 2 mps 728 mmHg 64%
03:00 +18°C° 0 mm 2 mps 728 mmHg 63%
04:00 +18°C° 0 mm 2 mps 728 mmHg 63%
05:00 +18°C° 0 mm 2 mps 727 mmHg 63%
06:00 +19°C° 0 mm 2 mps 728 mmHg 59%
07:00 +20°C° 0 mm 2 mps 728 mmHg 55%
08:00 +21°C° 0 mm 3 mps 729 mmHg 51%
09:00 +24°C° 0 mm 3 mps 729 mmHg 46%
10:00 +27°C° 0 mm 3 mps 729 mmHg 41%
11:00 +29°C° 0 mm 3 mps 729 mmHg 35%
12:00 +30°C° 0 mm 3 mps 729 mmHg 34%
13:00 +30°C° 0 mm 2 mps 729 mmHg 33%
14:00 +31°C° 0 mm 2 mps 728 mmHg 32%
15:00 +29°C° 0 mm 2 mps 728 mmHg 45%
16:00 +26°C° 0 mm 2 mps 728 mmHg 57%
17:00 +24°C° 0 mm 1 mps 728 mmHg 69%
18:00 +21°C° 0 mm 2 mps 729 mmHg 74%
19:00 +20°C° 0 mm 2 mps 729 mmHg 79%
20:00 +19°C° 0 mm 2 mps 730 mmHg 84%
21:00 +18°C° 0 mm 2 mps 730 mmHg 84%
22:00 +18°C° 0 mm 2 mps 730 mmHg 84%
23:00 +17°C° 0 mm 2 mps 731 mmHg 84%

11 August, Tuesday

Time Temperature Precipitation Wind Pressure Humidity
00:00 +17°C° 0 mm 2 mps 731 mmHg 83%
01:00 +17°C° 0 mm 2 mps 731 mmHg 83%
02:00 +17°C° 0 mm 2 mps 730 mmHg 82%
03:00 +17°C° 0 mm 3 mps 730 mmHg 82%
04:00 +16°C° 0 mm 3 mps 730 mmHg 81%
05:00 +16°C° 0 mm 3 mps 730 mmHg 81%
06:00 +16°C° 0 mm 3 mps 730 mmHg 78%
07:00 +16°C° 0 mm 3 mps 730 mmHg 75%
08:00 +16°C° 0 mm 3 mps 731 mmHg 72%
09:00 +17°C° 0 mm 3 mps 730 mmHg 70%
10:00 +19°C° 0 mm 3 mps 730 mmHg 69%
11:00 +20°C° 0 mm 3 mps 730 mmHg 67%
12:00 +20°C° 0 mm 3 mps 729 mmHg 67%
13:00 +21°C° 0 mm 3 mps 728 mmHg 66%
14:00 +21°C° 0 mm 3 mps 728 mmHg 66%
15:00 +21°C° 0 mm 3 mps 727 mmHg 68%
16:00 +20°C° 0 mm 3 mps 727 mmHg 71%
17:00 +19°C° 0 mm 3 mps 727 mmHg 73%
18:00 +19°C° 0 mm 2 mps 727 mmHg 77%
19:00 +18°C° 0 mm 2 mps 727 mmHg 80%
20:00 +17°C° 0 mm 2 mps 726 mmHg 84%
21:00 +17°C° 0.1 mm 2 mps 726 mmHg 87%
22:00 +16°C° 0.1 mm 2 mps 726 mmHg 91%
23:00 +16°C° 0.1 mm 1 mps 726 mmHg 95%
Show more